Regional Weather Roundup
Issued by NWS

Home | Current Version | Previous Version | Text Only | Print | Product List | Glossary On
Versions: 1 2 3 4 5 6 7 8 9 10 11 12 13 14 15 16 17 18 19 20 21 22 23 24 25 26 27 28 29 30 31 32 33 34 35 36 37 38 39 40 41 42 43 44 45 46 47 48 49 50
000
ASUS43 KDTX 250210
RWRMI
MICHIGAN HOURLY REGIONAL WEATHER ROUNDUP
NATIONAL WEATHER SERVICE DETROIT/PONTIAC MI
1000 PM EDT FRI OCT 24 2014

NOTE: "FAIR" INDICATES FEW OR NO CLOUDS BELOW 12,000 FEET WITH NO
SIGNIFICANT WEATHER AND/OR OBSTRUCTION TO VISIBILITY.

MIZ047>049-052>055-059>063-066>070-074>076-081>083-250300-
SOUTHEAST LOWER MICHIGAN

CITY           SKY/WX    TMP DP  RH WIND       PRES   REMARKS
ADRIAN         PTCLDY    47  44  90 CALM      29.99F
ALMA           MOCLDY    44  43  95 CALM      29.96S FOG
ANN ARBOR      PTCLDY    42  39  89 CALM      29.98S
BAD AXE        CLOUDY    46  45  97 CALM      29.95S
CARO           PTCLDY    46  45  97 CALM      29.95R
DETROIT CITY   CLOUDY    58  46  64 SW7       29.97F
DETROIT        CLOUDY    56  46  69 S9        29.99F
FLINT          PTCLDY    55  47  74 SW5       29.96F
GROSSE ILE     CLOUDY    55  46  71 CALM      29.97F
HILLSDALE      CLEAR     47  46  98 CALM      29.98S FOG
HOWELL         PTCLDY    52  47  83 S3        29.97S

CITY           SKY/WX    TMP DP  RH WIND       PRES   REMARKS
JACKSON        CLEAR     45  43  93 CALM      29.98S
LAMBERTVILLE   CLOUDY    48  45  87 CALM      29.99S FOG
LANSING        PTCLDY    47  44  90 CALM      29.98S
LAPEER         FAIR      50  46  84 CALM      29.96S
MASON          PTCLDY    48  45  87 CALM      29.97S
MONROE         CLEAR     48  45  87 CALM      29.97S
MT. CLEMENS    CLOUDY    56  46  69 SW6       29.95S
PONTIAC        CLOUDY    54  45  71 SW5       29.97R
PORT HOPE        N/A     51  47  86 CALM      29.93S
PORT HURON     CLOUDY    52  46  82 SW3       29.96F
TRI CITIES     CLOUDY    52  48  86 SW3       29.97R
TROY           CLOUDY    56  45  64 CALM      29.99S
SAGINAW HB     MOCLDY    54  48  82 W5        29.95S
$$
MIZ043>046-050>051-056>058-064>065-071>073-077>080-250300-
SOUTHWEST LOWER MICHIGAN

CITY           SKY/WX    TMP DP  RH WIND       PRES   REMARKS
BATTLE CREEK   CLEAR     46  43  89 S3        29.98S
BENTON HARBOR  CLOUDY    50  47  89 SE3       29.96F
BIG RAPIDS     CLOUDY    50  50 100 SW5       29.94F
COLDWATER      CLEAR     46  45  96 CALM      29.98R FOG
FREMONT        CLOUDY    50  48  95 SW5       29.95F FOG
HOLLAND        MOCLDY    48  45  89 CALM      29.96F FOG
GRAND RAPIDS   CLEAR     45  44  97 S5        29.96F FOG
IONIA          FAIR      48  47  95 W6        29.96S FOG
KALAMAZOO      CLEAR     47  44  90 CALM      29.98F FOG
LUDINGTON      PTCLDY    49  48  95 S5        29.93F
MARSHALL         N/A     41  40  99 CALM      29.97S VSB 1/4
MOUNT PLEASANT MOCLDY    50  47  91 CALM      29.94F
MUSKEGON       MOCLDY    46  44  93 SE3       29.95F FOG
SOUTH HAVEN    MOCLDY    47  46  95 CALM      29.96F FOG
$$
MIZ016>042-250300-
NORTHERN LOWER MICHIGAN

CITY           SKY/WX    TMP DP  RH WIND       PRES   REMARKS
ALPENA         PTCLDY    49  46  90 CALM      29.90F
BEAVER ISLAND  CLOUDY    50  48  93 SW9       29.87S
BELLAIRE       MOCLDY    51  46  86 S3        29.90F
CADILLAC       CLOUDY    48  47  95 SW9       29.92F
CHARLEVOIX     MOCLDY    49  47  94 S5        29.91F
FRANKFORT      PTCLDY    49  45  88 CALM      29.90F
GAYLORD        MOCLDY    48  45  89 SW6       29.89F
GRAYLING       CLOUDY    49  47  92 SW3       29.91F
HARBOR SPRINGS MOCLDY    51  47  85 SW5       29.88F
HOUGHTON LAKE  CLOUDY    49  46  90 SW5       29.93F
MANISTEE       PTCLDY    48  45  87 CALM      29.93F
OSCODA         CLOUDY    51  48  90 CALM      29.92S
TRAVERSE CITY  PTCLDY    50  45  83 VRB3      29.89F
$$
MIZ007>008-015-250300-
EASTERN UPPER MICHIGAN

CITY           SKY/WX    TMP DP  RH WIND       PRES   REMARKS
KINROSS        CLOUDY    50  48  93 SW9       29.85F
MACKINAC ISLAN CLOUDY    51  47  87 SW7       29.86F
NEWBERRY       CLOUDY    47  46  98 SW17      29.83F FOG
S. S. MARIE    CLOUDY    50  45  83 S12       29.84F
MUNISING         N/A     51  47  86 S13G22    29.78F
$$
MIZ004>006-011>014-085-250300-
CENTRAL UPPER MICHIGAN

CITY           SKY/WX    TMP DP  RH WIND       PRES   REMARKS
MANISTIQUE     FOG       48  48 100 S12G21    29.85S VSB 1
ESCANABA       CLOUDY    52  46  82 SW10      29.84S
MENOMINEE      MOCLDY    52  46  82 SW8       29.86F
SAWYER-GWINN   CLEAR     48  45  87 S10       29.79F
$$
MIZ001>003-009>011-084-250300-
WESTERN UPPER MICHIGAN

CITY           SKY/WX    TMP DP  RH WIND       PRES   REMARKS
HOUGHTON       PTCLDY    56  43  61 S5        29.70F
COPPER HARBOR    N/A     58  44  60 W10       29.67F
IRONWOOD       PTCLDY    55  52  88 SW14      29.75S
$$

ABBREVIATIONS USED IN REMARKS
   TC - TEMPERATURE IN CELSIUS
  WCI - WIND CHILL INDEX
   HX - HEAT INDEX
  VSB - VISIBILITY




USA.gov is the U.S. government's official web portal to all federal, state and local government web resources and services.